Lake Hood, AK

5:35 PM AKDT on May 22, 2018 (GMT -0800)
Lake Hood

Weather History for PALH - September, 2012

Change the Weather History Date:

Thursday, September 20, 2012

  Actual Average Record
Temperature  
Mean Temperature 54 °F -  
Max Temperature 59 °F 51 °F 63 °F (2001)
Min Temperature 50 °F 38 °F 33 °F (2015)
Degree Days  
Heating Degree Days 12    
Growing Degree Days 4 (Base 50)    
Moisture  
Dew Point 49 °F    
Average Humidity 88    
Maximum Humidity 96    
Minimum Humidity 70    
Precipitation  
Precipitation 0.28 in - - ()
Sea Level Pressure  
Sea Level Pressure 29.68 in    
Wind  
Wind Speed 3 mph (NW)    
Max Wind Speed 12 mph    
Max Gust Speed 23 mph    
Visibility 8 miles    
Events Rain    
Averages and records for this station are not official NWS values.
T = Trace of Precipitation, MM = Missing Value Source: NWS Daily Summary

Daily Weather History Graph

Daily Weather History Graph

Search for Another Location

Airport or City:

Astronomy

Sep. 20, 2012 Rise Set
Actual Time 7:40 AM AKDT 8:03 PM AKDT
Civil Twilight 6:57 AM AKDT 8:47 PM AKDT
Nautical Twilight 6:04 AM AKDT 9:39 PM AKDT
Astronomical Twilight 5:05 AM AKDT 10:37 PM AKDT
Moon 2:57 PM AKDT (9/20) 9:26 PM AKDT (9/20)
Length of Visible Light 13h 49m
Length of Day
12h 23m
Waxing Crescent, 28% of the Moon is Illuminated
Sep 20
Waxing Crescent
Sep 22
First Quarter
Sep 29
Full
Oct 7
Last Quarter
Oct 15
New

Hourly Weather History & Observations

Time (AKDT) Temp. Dew Point Humidity Pressure Visibility Wind Dir Wind Speed Gust Speed Precip Events Conditions
12:53 AM 52.0 °F 46.9 °F 83% 29.64 in 10.0 mi Calm Calm - N/A   Overcast
1:53 AM 57.9 °F 48.0 °F 70% 29.67 in 10.0 mi Calm Calm - N/A   Overcast
2:53 AM 53.1 °F 48.0 °F 83% 29.69 in 10.0 mi Calm Calm - N/A   Overcast
3:53 AM 52.0 °F 46.9 °F 83% 29.71 in 10.0 mi Calm Calm - 0.00 in Rain Light Rain
4:53 AM 51.1 °F 46.9 °F 86% 29.71 in 10.0 mi Calm Calm - 0.00 in Rain Light Rain
5:53 AM 51.1 °F 48.0 °F 89% 29.72 in 9.0 mi Calm Calm - 0.00 in Rain Light Rain
6:53 AM 51.1 °F 48.0 °F 89% 29.71 in 10.0 mi NW 3.5 mph - 0.00 in Rain Light Rain
7:53 AM 50.0 °F 48.0 °F 93% 29.72 in 8.0 mi West 3.5 mph - 0.00 in Rain Light Rain
8:53 AM 51.1 °F 48.0 °F 89% 29.71 in 10.0 mi NW 6.9 mph - 0.00 in   Overcast
9:53 AM 51.1 °F 48.0 °F 89% 29.71 in 5.0 mi NW 6.9 mph - N/A Rain Light Rain
10:53 AM 51.1 °F 48.0 °F 89% 29.70 in 5.0 mi WNW 3.5 mph - 0.01 in Rain Light Rain
11:53 AM 52.0 °F 48.9 °F 89% 29.69 in 4.0 mi WNW 6.9 mph - 0.04 in Rain Rain
12:20 PM 53.6 °F 50.0 °F 88% 29.69 in 6.0 mi WNW 6.9 mph - 0.01 in Rain Light Rain
12:53 PM 53.1 °F 50.0 °F 89% 29.68 in 10.0 mi North 6.9 mph - 0.01 in Rain Light Rain
1:53 PM 53.1 °F 51.1 °F 93% 29.67 in 10.0 mi North 6.9 mph - 0.01 in Rain Light Rain
2:53 PM 53.1 °F 50.0 °F 89% 29.67 in 10.0 mi North 4.6 mph - 0.00 in   Overcast
3:53 PM 53.1 °F 50.0 °F 89% 29.65 in 10.0 mi North 5.8 mph - 0.00 in   Overcast
4:53 PM 53.1 °F 50.0 °F 89% 29.64 in 10.0 mi Calm Calm - N/A   Overcast
5:53 PM 54.0 °F 48.9 °F 83% 29.64 in 10.0 mi North 4.6 mph - N/A   Overcast
6:53 PM 53.1 °F 50.0 °F 89% 29.65 in 10.0 mi East 4.6 mph - 0.00 in Rain Light Rain
7:53 PM 53.1 °F 51.1 °F 93% 29.63 in 10.0 mi ENE 3.5 mph - 0.01 in Rain Light Rain
8:53 PM 53.1 °F 52.0 °F 96% 29.65 in 6.0 mi NW 4.6 mph - 0.01 in Rain Rain
9:53 PM 55.0 °F 50.0 °F 83% 29.66 in 6.0 mi South 11.5 mph 23.0 mph 0.06 in Rain Light Rain
10:53 PM 55.0 °F 52.0 °F 89% 29.68 in 6.0 mi South 9.2 mph 21.9 mph 0.03 in Rain Rain
11:53 PM 54.0 °F 51.1 °F 90% 29.72 in 2.5 mi SW 8.1 mph - 0.10 in Rain Heavy Rain